Date,TemperatureHighF,TemperatureAvgF,TemperatureLowF,DewpointHighF,DewpointAvgF,DewpointLowF,HumidityHigh,HumidityAvg,HumidityLow,PressureMaxIn,PressureMinIn,WindSpeedMaxMPH,WindSpeedAvgMPH,GustSpeedMaxMPH,PrecipitationSumIn
2013-1-1,47.5,37.3,28.8,33.9,30.3,26.8,96,78,52,30.27,30.21,3,0,4,0.00
2013-1-2,53.3,38.3,29.6,35.0,28.8,23.5,91,71,37,30.27,30.16,1,0,4,0.00
2013-1-3,54.9,39.1,30.7,36.3,32.6,28.7,93,79,46,30.27,30.18,0,0,1,0.00
2013-1-4,54.9,41.4,33.2,37.7,32.2,26.0,90,72,40,30.30,30.20,0,0,3,0.00
2013-1-5,52.4,41.6,34.7,39.4,35.1,30.6,90,79,43,30.26,30.08,0,0,5,0.00
2013-1-6,45.9,40.5,35.4,40.9,38.3,34.3,97,92,77,30.16,30.08,4,0,4,0.04
2013-1-7,52.5,41.7,35.2,41.1,36.3,31.4,94,82,55,30.23,30.13,2,0,5,0.00
2013-1-8,55.0,42.5,34.3,45.3,39.5,33.5,98,90,69,30.23,30.14,0,0,5,0.00
2013-1-9,50.2,42.1,34.1,42.3,38.9,33.0,97,89,65,30.18,29.87,10,0,10,0.60
2013-1-10,38.8,31.4,27.0,32.9,29.5,26.3,98,93,73,30.15,29.97,2,0,8,0.01
2013-1-11,40.9,30.0,24.4,31.1,25.4,-99.9,97,86,55,30.24,30.15,1,-6,6,0.00
2013-1-12,40.9,31.6,22.1,24.5,20.5,13.3,89,65,35,30.24,30.15,7,0,7,0.00
2013-1-13,41.3,32.3,21.2,22.4,14.5,4.3,91,51,23,30.27,30.18,8,1,8,0.00
2013-1-14,42.8,29.9,25.7,12.7,10.2,6.2,55,44,25,30.40,30.23,1,0,5,0.00
2013-1-15,46.7,34.2,26.7,31.5,26.3,21.7,89,74,49,30.51,30.40,1,0,4,0.00
2013-1-16,32.9,32.1,31.6,29.0,27.4,24.8,90,83,72,30.46,30.43,0,0,0,0.00
2013-1-17,62.2,45.1,34.4,35.3,27.2,18.2,74,52,27,30.30,30.19,0,0,4,0.00
2013-1-18,64.8,47.2,37.7,33.5,27.0,21.2,69,48,20,30.25,30.16,1,0,5,0.00
2013-1-19,64.6,49.9,37.8,36.9,28.1,19.9,65,45,23,30.27,30.17,2,0,2,0.00
2013-1-20,65.1,47.2,38.6,35.9,30.8,24.3,80,56,27,30.24,30.12,0,0,4,0.00
2013-1-21,63.8,47.7,37.1,35.3,29.8,22.7,81,52,25,30.19,30.12,1,0,5,0.00
2013-1-22,67.2,49.8,38.1,32.9,27.4,19.3,67,45,18,30.16,30.03,0,0,5,0.00
2013-1-23,61.8,51.2,46.2,46.5,33.7,21.5,97,58,26,30.08,29.98,2,0,4,0.09
2013-1-24,57.2,51.6,47.0,50.5,47.9,45.3,96,88,74,30.16,30.04,0,0,3,0.01
2013-1-25,58.3,52.4,49.9,53.5,49.9,-99.9,98,93,81,30.16,30.00,2,-6,8,0.06
2013-1-26,52.4,46.3,38.8,49.1,43.7,36.8,97,91,77,30.00,29.88,6,0,6,0.00
2013-1-27,45.6,40.3,34.7,38.5,36.5,33.9,98,87,67,30.11,29.97,7,1,7,0.17
2013-1-28,48.8,38.2,28.7,34.9,31.1,27.4,95,77,53,30.26,30.13,3,0,10,0.00
2013-1-29,52.8,43.2,32.7,39.4,34.8,30.4,92,74,50,30.33,30.25,5,0,8,0.00
2013-1-30,57.2,46.8,39.9,43.0,39.2,35.0,89,76,57,30.33,30.25,4,0,5,0.00
2013-1-31,61.7,49.3,37.2,45.3,40.3,34.7,94,74,43,30.30,30.19,4,0,4,0.00
2013-2-1,67.3,52.3,40.3,42.9,37.6,-99.9,90,61,33,30.22,30.13,6,-4,6,0.00
2013-2-2,66.8,53.1,42.5,45.5,40.0,34.2,84,64,31,30.27,30.18,5,0,5,0.00
2013-2-3,63.0,49.8,38.3,43.7,36.5,-99.9,87,64,36,30.19,30.09,8,-10,8,0.00
2013-2-4,61.6,48.0,39.3,42.3,38.1,31.5,89,71,32,30.15,30.04,1,0,7,0.00
2013-2-5,54.9,43.6,36.7,44.4,38.8,34.1,95,83,66,30.10,30.00,2,0,6,0.00
2013-2-6,55.3,42.2,32.0,36.6,33.2,28.1,96,74,35,30.15,30.09,1,0,7,0.00
2013-2-7,43.6,39.2,35.4,39.5,36.8,34.2,97,91,80,30.15,29.98,2,0,7,0.22
2013-2-8,48.4,37.6,29.1,35.5,27.2,20.2,98,69,39,29.98,29.92,4,0,11,0.05
2013-2-9,41.6,32.2,27.8,24.2,22.6,20.3,83,68,45,30.02,29.96,3,0,3,0.00
2013-2-10,56.4,44.6,30.6,34.2,26.0,19.3,83,51,24,30.11,30.00,10,1,10,0.00
2013-2-11,55.5,43.9,35.1,30.9,24.3,17.7,72,48,26,30.22,30.09,3,1,10,0.00
2013-2-12,54.3,41.9,32.3,35.6,31.8,27.7,85,69,47,30.36,30.22,1,0,7,0.00
2013-2-13,57.5,43.9,33.5,41.6,36.7,31.7,93,77,50,30.33,30.21,3,0,7,0.00
2013-2-14,67.3,53.1,41.0,42.7,36.9,27.4,83,56,34,30.23,30.16,2,0,7,0.00
2013-2-15,66.4,52.1,41.7,41.8,33.8,27.2,77,51,32,30.26,30.20,2,0,6,0.00
2013-2-16,57.1,44.8,41.0,37.8,31.7,25.9,72,60,49,30.25,30.18,0,0,0,0.00
2013-2-17,61.1,50.7,38.8,40.9,37.0,-99.9,83,62,44,30.03,29.93,6,-4,6,0.00
2013-2-18,57.6,46.8,37.2,41.6,37.8,32.8,88,72,49,29.98,29.85,8,1,8,0.00
2013-2-19,40.1,35.0,32.3,35.8,33.2,31.3,97,93,81,29.88,29.70,7,0,8,0.48
2013-2-20,50.3,38.1,29.8,34.4,31.4,28.7,97,79,49,30.02,29.77,3,1,11,0.13
2013-2-21,51.8,39.8,30.6,35.0,30.6,27.2,97,72,41,30.15,30.02,3,1,11,0.00
2013-2-22,54.5,43.0,30.9,37.4,32.1,27.2,86,67,45,30.23,30.14,2,0,7,0.00
2013-2-23,50.2,44.2,37.5,38.7,30.2,17.6,90,61,35,30.20,30.10,5,1,18,0.00
2013-2-24,60.0,46.8,34.7,29.5,21.8,12.9,69,40,16,30.21,30.13,9,1,10,0.00
2013-2-25,56.7,43.4,35.0,32.6,29.3,25.6,77,59,34,30.26,30.17,3,0,9,0.00
2013-2-26,62.7,46.7,34.7,29.2,20.7,13.5,79,40,15,30.20,30.13,4,1,12,0.00
2013-2-27,62.6,48.3,38.1,34.1,25.4,15.2,62,42,25,30.34,30.20,2,0,7,0.00
2013-2-28,64.5,51.1,39.7,39.3,35.1,27.2,72,56,30,30.41,30.34,3,1,12,0.00
2013-3-1,69.3,54.2,42.3,46.5,42.7,38.4,86,67,40,30.41,30.25,2,0,7,0.00
2013-3-2,68.7,58.7,46.9,44.9,40.1,34.6,84,53,33,30.26,30.04,6,0,6,0.00
2013-3-3,55.9,52.1,48.0,49.2,45.4,-99.9,90,79,62,30.05,29.97,3,-4,3,0.01
2013-3-4,47.7,45.5,44.8,44.6,42.9,42.3,91,90,89,30.01,30.01,0,0,1,0.00
2013-3-5,53.1,47.8,43.2,44.7,41.3,35.0,92,79,52,30.01,29.88,9,0,9,0.00
2013-3-6,46.9,41.0,35.3,40.7,38.4,33.8,97,91,79,30.04,29.80,10,1,23,0.60
2013-3-7,51.9,41.2,33.5,39.6,36.3,32.7,98,84,56,29.99,29.88,1,0,9,0.01
2013-3-8,54.9,43.7,31.9,41.2,35.6,30.6,95,76,46,29.99,29.81,3,1,10,0.01
2013-3-9,62.5,49.5,34.1,38.5,32.4,26.4,96,56,29,30.29,29.99,10,1,13,0.00
2013-3-10,61.1,50.7,36.7,44.6,35.6,20.8,83,57,38,30.32,30.23,7,0,7,0.00
2013-3-11,66.7,52.2,40.2,44.3,41.2,37.9,93,69,40,30.26,30.10,3,0,7,0.00
2013-3-12,71.2,55.5,43.3,48.2,44.8,40.3,90,70,44,30.15,30.05,2,0,6,0.00
2013-3-13,74.2,60.3,47.3,48.1,43.7,35.0,87,58,25,30.14,30.06,2,0,6,0.00
2013-3-14,73.0,61.5,52.7,48.6,42.9,34.9,68,52,32,30.11,30.03,3,0,7,0.00
2013-3-15,72.8,57.8,48.0,48.4,43.8,35.9,81,63,26,30.06,29.99,2,0,9,0.00
2013-3-16,67.3,55.4,43.9,45.8,39.4,32.4,85,58,28,30.03,29.96,4,0,10,0.00
2013-3-17,64.5,53.8,39.8,42.9,34.9,-99.9,81,52,21,30.07,30.00,9,-4,9,0.00
2013-3-18,65.8,52.5,40.7,40.9,35.6,30.5,75,55,28,30.07,30.00,2,0,6,0.00
2013-3-19,65.5,52.7,47.5,50.4,41.8,-99.9,95,71,36,30.08,30.02,5,-11,6,0.22
2013-3-20,50.5,48.9,46.9,49.4,48.0,46.1,98,97,95,30.08,30.04,1,0,8,5.18
2013-3-21,58.0,49.5,42.9,48.6,44.0,35.5,99,83,46,30.07,29.97,3,1,9,0.00
2013-3-22,56.1,47.9,35.4,39.3,25.0,10.0,92,45,17,30.05,29.98,8,2,15,0.00
2013-3-23,62.9,49.9,33.8,35.4,28.9,19.6,71,46,26,30.10,30.02,8,1,8,0.00
2013-3-24,66.5,52.4,38.6,39.4,33.9,29.4,77,53,29,30.07,29.94,8,1,8,0.00
2013-3-25,67.6,54.4,42.8,42.5,39.5,36.9,81,60,37,29.97,29.86,2,0,8,0.00
2013-3-26,64.1,53.7,43.4,43.3,41.5,37.9,89,65,40,29.93,29.88,7,0,8,0.00
2013-3-27,65.5,54.8,46.5,49.8,45.1,41.1,83,71,49,29.96,29.90,6,0,10,0.00
2013-3-28,60.6,54.1,48.9,52.5,47.0,44.1,88,77,62,30.06,29.96,5,0,5,0.01
2013-3-29,72.0,57.5,44.0,47.3,43.7,41.0,91,64,35,30.09,30.01,2,0,8,0.00
2013-3-30,73.8,61.6,48.0,52.5,47.3,40.8,81,61,41,30.03,29.91,7,0,8,0.00
2013-3-31,61.6,52.6,44.1,51.6,48.0,41.9,98,85,59,30.04,29.94,7,0,7,1.27
2013-4-1,58.7,51.4,44.0,50.2,46.0,-99.9,98,84,60,30.13,30.02,9,-4,9,0.04
2013-4-2,64.6,51.7,40.7,49.8,44.7,39.7,96,79,55,30.14,30.06,3,1,9,0.00
2013-4-3,71.5,56.2,45.2,53.7,49.0,44.1,97,79,53,30.11,29.95,2,0,9,0.00
2013-4-4,54.5,51.7,46.3,52.7,50.2,44.7,97,95,81,30.06,29.93,7,0,11,0.65
2013-4-5,59.6,53.2,48.2,50.6,48.9,47.1,98,86,65,30.12,30.06,4,0,7,0.02
2013-4-6,62.3,53.7,47.6,49.9,48.2,45.3,96,83,59,30.14,30.06,5,0,5,0.00
2013-4-7,62.6,53.1,44.7,50.3,47.5,42.2,96,82,60,30.09,29.75,11,1,11,0.02
2013-4-8,59.9,48.8,39.8,42.3,34.8,25.7,97,65,27,29.98,29.68,5,1,12,0.61
2013-4-9,69.7,55.0,38.8,36.0,27.9,18.4,71,40,14,30.10,29.99,13,1,13,0.00
2013-4-10,75.5,62.2,47.2,48.9,39.9,28.1,66,45,31,30.15,29.95,4,1,11,0.00
2013-4-11,69.4,59.5,49.9,49.7,44.0,34.9,90,60,29,29.95,29.77,6,1,10,0.00
2013-4-12,72.3,58.9,45.3,47.1,40.4,33.6,75,54,26,29.85,29.77,2,0,7,0.00
2013-4-13,72.0,59.9,47.3,44.6,41.6,36.0,77,53,28,29.82,29.74,6,1,8,0.00
2013-4-14,65.4,56.2,43.2,42.7,36.2,21.6,79,51,21,29.81,29.69,9,1,9,0.00
2013-4-15,52.9,46.6,41.2,41.3,36.1,28.2,93,68,39,29.83,29.73,3,1,10,0.00
2013-4-16,59.5,46.6,38.0,36.0,25.2,15.9,87,48,18,30.14,29.84,2,0,10,0.00
2013-4-17,63.3,50.1,37.8,29.4,23.1,15.7,61,37,17,30.23,30.14,10,1,11,0.00
2013-4-18,66.6,55.8,41.0,39.0,29.9,19.9,61,39,22,30.24,30.17,7,0,7,0.00
2013-4-19,71.7,57.8,43.7,45.3,40.2,36.5,78,55,33,30.22,30.04,2,0,8,0.00
2013-4-20,74.3,62.3,47.5,46.0,40.7,29.6,82,49,28,30.06,29.93,7,1,7,0.00
2013-4-21,76.8,65.7,47.9,48.0,42.2,34.1,76,46,23,30.00,29.92,6,1,6,0.00
2013-4-22,78.6,64.4,50.3,50.5,42.1,33.4,77,49,21,29.94,29.81,3,1,10,0.00
2013-4-23,77.0,65.6,54.7,41.5,30.6,19.1,56,28,15,29.86,29.79,2,0,7,0.00
2013-4-24,83.3,65.7,48.8,39.6,30.2,19.6,69,32,10,29.83,29.73,1,0,6,0.00
2013-4-25,71.6,59.6,46.1,48.7,41.0,24.5,75,51,25,30.02,29.78,3,0,5,0.00
2013-4-26,75.1,60.9,46.7,52.0,48.0,43.6,89,66,39,30.14,30.03,2,0,5,0.00
2013-4-27,80.6,67.5,51.5,56.0,50.7,47.2,87,59,33,30.15,30.00,5,0,6,0.00
2013-4-28,82.4,70.3,52.0,52.5,48.1,41.9,75,48,26,30.00,29.84,7,1,7,0.00
2013-4-29,80.0,67.9,54.4,55.8,49.3,43.6,82,55,28,29.84,29.70,5,0,8,0.00
2013-4-30,76.1,65.2,50.6,50.5,39.6,19.7,84,46,16,29.79,29.68,10,1,11,0.00
2013-5-1,82.9,69.3,55.4,32.1,21.8,10.9,32,17,12,30.05,29.80,2,0,11,0.00
2013-5-2,84.6,71.1,58.9,45.5,31.1,14.2,52,24,15,30.11,30.02,5,0,7,0.00
2013-5-3,81.7,68.9,53.7,51.3,43.0,37.7,64,43,21,30.04,29.75,4,0,7,0.00
2013-5-4,83.5,71.3,59.3,47.6,36.1,24.5,61,29,19,29.76,29.46,8,1,8,0.00
2013-5-5,68.0,59.9,50.3,48.5,43.9,36.5,72,56,39,29.74,29.46,3,0,7,0.00
2013-5-6,63.1,56.0,50.1,52.2,49.2,45.6,96,79,59,29.90,29.75,2,0,4,0.48
2013-5-7,60.0,55.1,51.9,54.0,51.7,50.2,95,89,75,29.98,29.90,1,0,3,0.06
2013-5-8,66.0,58.1,52.6,54.5,51.8,49.5,97,81,58,30.06,29.98,1,0,5,0.00
2013-5-9,72.6,61.5,48.3,57.2,52.9,46.7,96,75,52,30.06,30.00,4,0,7,0.00
2013-5-10,80.9,67.8,53.8,60.7,57.0,52.1,95,71,48,30.09,30.00,5,0,5,0.00
2013-5-11,86.8,74.7,56.7,62.5,58.3,51.5,92,60,32,30.05,29.98,5,0,5,0.00
2013-5-12,88.8,74.9,60.8,60.2,49.2,39.2,84,47,19,30.05,29.93,6,0,8,0.00
2013-5-13,87.4,72.8,58.6,50.9,43.8,34.6,64,41,16,29.99,29.86,1,0,6,0.00
2013-5-14,83.0,70.9,55.6,56.6,50.5,43.1,70,50,28,29.86,29.80,4,0,7,0.00
2013-5-15,74.3,65.1,53.7,54.3,48.6,43.2,83,57,34,29.91,29.82,3,0,7,0.00
2013-5-16,66.6,59.2,52.9,52.0,49.1,46.9,89,70,52,29.92,29.85,4,0,7,0.00
2013-5-17,68.1,56.6,44.5,47.6,44.0,39.3,94,66,39,30.00,29.88,2,0,8,0.00
2013-5-18,72.2,59.4,45.0,47.9,43.7,40.4,85,60,32,30.07,29.99,3,1,9,0.00
2013-5-19,74.9,64.2,48.8,45.6,42.3,29.7,84,48,26,30.05,29.92,5,1,14,0.00
2013-5-20,83.0,69.5,56.0,48.1,38.4,30.7,58,34,19,29.96,29.84,3,0,7,0.00
2013-5-21,75.4,65.0,56.1,45.3,40.3,26.1,65,43,17,29.86,29.76,9,1,10,0.00
2013-5-22,62.5,51.7,35.1,42.4,27.1,12.8,79,43,16,29.88,29.84,7,1,8,0.00
2013-5-23,64.3,49.3,38.5,40.0,32.5,28.3,72,54,31,29.95,29.84,3,1,8,0.00
2013-5-29,71.3,60.9,53.5,55.1,51.1,42.7,97,73,38,29.88,29.82,2,0,8,0.00
2013-5-30,76.2,62.5,48.3,51.5,45.9,37.2,85,59,27,29.92,29.86,3,1,8,0.00
2013-5-31,84.1,67.7,49.9,51.0,44.8,41.4,76,49,23,29.95,29.86,4,1,9,0.00
2013-6-1,87.9,73.6,58.2,52.2,45.8,38.0,62,41,18,29.86,29.71,2,0,5,0.00
2013-6-2,91.4,74.3,58.8,55.9,49.6,42.6,67,45,21,29.71,29.57,2,0,5,0.00
2013-6-3,87.8,75.6,59.6,56.3,51.2,46.4,68,45,26,29.68,29.60,3,1,6,0.00
2013-6-4,83.1,71.0,59.8,58.0,55.5,52.6,77,60,39,29.78,29.68,2,0,6,0.00
2013-6-5,87.0,72.9,58.6,62.4,57.7,54.1,87,62,40,29.86,29.77,6,0,6,0.00
2013-6-6,90.1,74.7,60.9,64.5,59.2,55.8,84,62,37,29.81,29.73,2,0,5,0.00
2013-6-7,99.3,79.9,61.4,61.6,55.4,43.8,85,51,16,29.77,29.66,2,0,6,0.00
2013-6-8,100.1,84.3,70.0,63.6,57.0,52.4,63,43,21,29.68,29.56,3,1,6,0.00
2013-6-9,85.9,76.4,66.2,61.5,57.2,51.4,68,53,36,29.71,29.58,5,0,5,0.00
2013-6-10,68.2,61.9,55.6,54.2,51.9,49.5,86,70,57,29.88,29.68,1,0,5,0.00
2013-6-11,80.7,65.5,51.8,56.0,52.0,48.7,90,66,38,29.93,29.82,2,0,7,0.00
2013-6-12,81.3,67.5,54.1,54.3,46.5,30.6,85,53,18,29.87,29.81,9,1,9,0.00
2013-6-13,76.8,64.9,49.8,47.7,40.9,27.9,75,46,18,30.00,29.86,6,1,6,0.00
2013-6-14,82.3,67.4,51.8,49.0,41.6,35.9,61,42,23,29.94,29.76,2,0,8,0.00
2013-6-15,85.5,65.4,53.4,51.4,45.4,30.1,74,53,16,29.82,29.75,6,0,6,0.00
2013-6-16,83.8,70.2,55.8,49.3,42.3,33.1,60,39,18,29.95,29.86,6,0,6,0.00
2013-6-17,82.6,68.8,55.2,50.3,46.0,42.7,69,47,27,29.95,29.86,6,1,7,0.00
2013-6-18,72.3,61.4,50.2,51.0,47.0,42.7,89,62,36,29.89,29.82,7,1,7,0.00
2013-6-19,70.3,58.9,44.7,46.2,40.9,30.0,91,56,24,29.97,29.87,8,1,8,0.00
2013-6-20,77.0,63.4,48.1,45.4,40.5,32.2,74,47,23,29.94,29.87,8,1,8,0.00
2013-6-21,78.9,66.3,51.8,47.7,43.1,39.1,67,46,27,29.91,29.84,3,1,8,0.00
2013-6-22,84.1,69.6,55.6,48.9,43.7,36.3,67,43,20,29.85,29.74,7,0,7,0.00
2013-6-23,73.5,64.4,58.7,57.4,50.6,42.0,85,62,47,29.76,29.67,8,0,8,0.00
2013-6-24,60.7,57.4,55.1,56.9,55.1,53.2,97,92,85,29.88,29.70,6,0,6,0.97
2013-6-25,64.6,60.0,55.0,64.0,59.4,54.2,99,98,97,29.97,29.86,6,0,6,1.14
2013-6-26,83.2,69.8,59.1,68.6,62.4,58.8,99,80,49,29.99,29.92,7,0,7,0.00
2013-6-27,90.0,75.1,59.4,66.4,61.4,55.3,96,67,34,30.01,29.93,3,0,3,0.00
2013-6-28,94.2,78.7,63.1,63.4,57.8,45.1,87,56,19,29.97,29.82,0,0,4,0.00
2013-6-29,100.2,81.2,66.7,64.4,57.3,50.0,70,49,21,29.85,29.72,0,0,4,0.00
2013-6-30,102.5,82.5,66.5,64.6,58.1,50.1,74,48,20,29.75,29.66,2,0,2,0.00
2013-7-1,102.4,84.1,68.1,69.2,59.8,54.5,73,48,23,29.75,29.68,0,0,3,0.00
2013-7-2,102.2,86.5,73.7,69.2,63.3,56.8,70,48,27,29.77,29.69,7,0,7,0.00
2013-7-3,99.9,85.1,69.0,69.0,64.0,57.9,80,53,27,29.78,29.65,4,0,4,0.00
2013-7-4,82.0,76.8,74.1,68.1,63.2,58.7,72,63,47,29.68,29.61,0,0,0,0.00
2013-7-5,92.0,78.9,68.1,61.2,51.4,40.7,66,41,20,29.62,29.52,4,0,4,0.00
2013-7-6,91.2,73.9,58.5,57.4,52.8,42.2,77,51,23,29.68,29.61,4,0,4,0.00
2013-7-7,92.0,74.9,59.8,57.8,51.1,43.6,71,48,21,29.75,29.67,6,0,6,0.00
2013-7-8,90.5,76.1,61.5,59.9,50.9,39.5,73,46,18,29.87,29.75,7,0,7,0.00
2013-7-9,67.7,64.2,62.1,52.8,50.3,47.5,67,61,57,29.93,29.87,0,0,0,0.00
2013-7-10,95.5,79.3,65.1,53.2,46.0,41.5,49,33,18,29.88,29.76,0,0,6,0.00
2013-7-11,88.8,75.7,61.9,51.2,43.4,36.2,60,35,17,29.80,29.74,0,0,5,0.00
2013-7-12,87.5,73.5,58.4,48.2,42.8,39.4,59,36,20,29.82,29.77,0,0,6,0.00
2013-7-13,90.4,71.3,58.0,49.4,44.5,39.6,60,42,17,29.87,29.80,4,0,4,0.00
2013-7-14,92.8,75.2,61.3,54.7,48.7,41.3,62,43,18,29.87,29.77,4,0,4,0.00
2013-7-15,90.3,74.4,62.1,54.8,49.5,43.1,68,45,24,29.79,29.69,5,0,5,0.00
2013-7-16,84.4,70.5,58.1,54.1,47.5,39.3,71,47,23,29.90,29.71,5,0,5,0.00
2013-7-17,60.4,57.4,56.1,49.7,46.4,44.8,69,67,64,29.96,29.90,0,0,0,0.00
2013-7-18,90.7,74.4,59.0,54.0,46.8,38.4,68,42,17,29.96,29.84,0,0,4,0.00
2013-7-19,95.4,78.3,62.2,57.7,48.8,43.6,63,39,19,29.85,29.71,3,0,3,0.00
2013-7-20,96.3,80.5,65.9,62.2,54.7,51.0,66,44,22,29.74,29.61,0,0,3,0.00
2013-7-21,96.0,80.8,69.3,63.0,57.1,50.6,67,47,25,29.70,29.63,1,0,3,0.00
2013-7-22,89.9,76.0,63.5,54.5,47.8,40.1,62,39,21,29.87,29.72,1,0,2,0.00
2013-7-23,89.3,76.7,66.4,54.6,49.6,44.8,57,40,26,29.89,29.82,0,0,4,0.00
2013-7-24,92.6,77.8,64.2,62.1,55.6,52.2,68,49,27,29.88,29.79,0,0,3,0.00
2013-7-25,93.7,80.8,67.9,62.8,58.6,54.7,73,50,28,29.87,29.81,0,0,5,0.00
2013-7-26,96.3,83.2,71.2,63.6,58.2,51.4,68,45,25,29.92,29.84,4,0,4,0.00
2013-7-27,93.0,79.7,67.5,59.3,55.8,48.2,69,47,24,29.89,29.72,4,0,4,0.00
2013-7-28,92.7,77.7,67.0,59.0,53.9,49.5,65,46,25,29.75,29.65,3,0,3,0.00
2013-7-29,86.0,73.2,60.0,55.8,49.6,35.8,71,47,18,29.87,29.68,4,0,4,0.00
2013-7-30,87.0,71.9,56.2,52.7,46.9,40.6,68,45,21,29.99,29.87,0,0,6,0.00
2013-7-31,87.3,73.7,61.8,53.0,46.7,40.9,61,41,22,29.95,29.86,1,0,7,0.00
2013-8-1,82.4,69.0,56.3,47.4,43.7,39.3,60,43,23,29.94,29.86,2,1,7,0.00
2013-8-2,85.5,69.6,54.1,50.0,42.9,37.3,64,42,21,29.89,29.81,2,1,6,0.00
2013-8-3,86.7,71.9,57.0,51.0,45.7,40.2,64,43,20,29.88,29.81,2,0,7,0.00
2013-8-4,88.9,72.8,59.5,51.3,47.2,40.9,64,44,20,29.88,29.82,7,1,7,0.00
2013-8-5,86.1,72.4,58.4,51.1,47.2,43.3,66,44,25,29.90,29.83,2,0,6,0.00
2013-8-6,85.4,71.1,58.4,51.6,47.6,39.8,68,47,21,29.88,29.84,5,0,6,0.00
2013-8-7,80.4,67.1,55.7,55.1,51.0,45.3,82,58,30,29.95,29.88,5,0,6,0.00
2013-8-8,81.1,66.3,52.6,54.6,49.1,42.3,84,58,27,29.93,29.84,6,0,6,0.00
2013-8-9,81.0,67.7,54.3,52.6,48.4,40.8,78,54,28,29.87,29.81,10,1,10,0.00
2013-8-10,82.5,67.8,54.1,53.0,48.8,44.4,79,54,29,29.94,29.88,8,0,8,0.00
2013-8-11,85.2,69.1,55.2,52.5,48.6,42.9,77,53,24,29.93,29.84,6,1,6,0.00
2013-8-12,85.1,69.6,56.2,53.7,48.5,44.5,75,51,26,29.90,29.85,2,0,8,0.00
2013-8-13,61.5,59.8,57.6,49.3,47.0,45.7,66,63,57,29.90,29.89,1,0,1,0.00
2013-8-14,90.0,73.1,58.7,53.2,45.9,39.7,64,42,19,29.87,29.80,2,0,6,0.00
2013-8-15,92.0,74.1,59.7,53.8,46.6,39.3,58,41,16,29.86,29.81,3,0,6,0.00
2013-8-16,95.0,75.0,58.4,56.2,46.4,37.4,64,41,14,29.90,29.83,5,0,6,0.00
2013-8-17,91.5,74.5,61.0,54.6,49.6,37.0,68,46,17,29.88,29.75,7,0,7,0.00
2013-8-18,96.8,78.3,63.6,61.4,53.0,47.5,67,46,19,29.81,29.69,6,0,6,0.00
2013-8-19,90.3,79.5,69.5,67.3,57.7,53.3,61,48,36,29.81,29.70,3,0,4,0.00
2013-8-20,92.3,79.7,69.6,64.4,58.5,54.5,78,51,30,29.76,29.68,5,0,6,0.00
2013-8-21,86.9,75.2,64.4,62.1,56.4,46.4,83,56,25,29.79,29.72,3,0,7,0.00
2013-8-22,86.2,72.0,61.4,57.6,49.8,42.5,66,49,24,29.83,29.75,5,0,8,0.00
2013-8-23,84.6,70.3,57.5,51.1,47.2,43.8,67,47,24,29.80,29.71,2,1,7,0.00
2013-8-24,85.7,71.1,60.1,52.9,47.8,45.0,65,46,26,29.78,29.73,8,0,8,0.00
2013-8-25,82.8,68.5,58.0,58.7,52.0,48.6,82,57,33,29.86,29.77,8,0,8,0.00
2013-8-26,82.9,68.0,55.9,54.8,52.9,48.7,87,62,34,29.91,29.82,4,0,7,0.00
2013-8-27,86.1,70.9,57.7,54.3,49.4,44.8,76,51,25,29.84,29.74,3,1,7,0.00
2013-8-28,88.7,72.7,60.3,55.4,49.1,45.4,70,46,26,29.83,29.75,2,0,8,0.00
2013-8-29,86.7,71.6,58.7,53.6,49.1,45.2,72,48,24,29.95,29.83,3,0,6,0.00
2013-8-30,92.3,72.7,59.1,54.3,47.5,39.2,67,46,17,29.97,29.85,7,0,7,0.00
2013-8-31,65.6,62.9,62.0,49.5,47.5,46.6,58,57,56,29.88,29.85,0,0,1,0.00
2013-9-1,87.3,75.2,62.5,59.0,50.9,41.1,73,45,23,29.83,29.76,5,0,5,0.00
2013-9-2,72.6,65.6,60.5,66.8,59.7,52.2,98,84,51,29.87,29.78,1,0,2,1.89
2013-9-3,80.3,68.3,62.0,63.5,60.5,53.4,99,79,47,29.92,29.84,0,0,4,0.01
2013-9-4,81.9,68.1,57.4,58.7,55.8,52.0,94,68,38,29.94,29.85,0,0,5,0.00
2013-9-5,80.8,66.6,55.6,55.2,50.6,42.1,88,61,28,29.92,29.84,8,0,8,0.00
2013-9-6,87.5,69.1,52.7,53.7,47.7,40.2,83,52,20,29.93,29.80,4,0,4,0.00
2013-9-7,90.7,74.0,59.3,56.1,49.8,44.2,73,47,22,29.84,29.75,4,0,4,0.00
2013-9-8,93.0,75.5,60.4,55.8,48.4,39.4,69,44,17,29.81,29.69,4,0,4,0.00
2013-9-9,93.0,75.0,62.0,56.2,49.0,44.6,62,43,19,29.73,29.60,7,0,7,0.00
2013-9-10,91.3,75.4,64.5,57.0,49.5,40.4,60,42,23,29.76,29.63,1,0,7,0.00
2013-9-11,84.2,68.4,60.0,56.7,54.3,46.6,82,63,27,29.87,29.76,2,0,7,0.00
2013-9-12,82.4,68.3,56.8,56.8,53.6,50.9,86,63,34,29.90,29.80,2,0,8,0.00
2013-9-13,85.8,71.2,60.7,61.0,56.9,54.0,79,62,38,29.82,29.65,3,0,5,0.00
2013-9-14,88.2,73.6,62.6,60.5,58.0,54.9,82,61,35,29.70,29.61,5,0,5,0.00
2013-9-15,83.7,70.4,61.0,57.5,48.6,34.5,77,52,20,29.74,29.64,7,0,8,0.00
2013-9-16,82.2,67.8,53.8,52.4,46.9,43.0,71,50,29,29.82,29.70,2,0,6,0.00
2013-9-17,71.4,63.2,54.9,52.0,49.6,44.7,82,62,39,29.82,29.69,4,0,6,0.00
2013-9-18,77.9,62.7,50.5,48.0,44.7,39.7,83,57,28,29.85,29.77,4,1,8,0.00
2013-9-19,85.6,65.4,52.4,47.4,42.4,38.3,66,47,20,29.83,29.71,3,0,6,0.00
2013-9-20,80.5,65.9,57.5,56.2,44.2,32.8,82,49,21,29.76,29.70,6,0,12,0.00
2013-9-21,60.0,55.4,48.5,55.2,52.5,47.3,97,90,76,29.82,29.73,11,0,11,0.66
2013-9-22,66.5,53.0,43.1,50.8,47.2,42.6,98,83,51,29.97,29.84,6,0,6,0.01
2013-9-23,74.7,59.7,46.6,53.1,49.4,45.0,94,72,39,29.99,29.90,5,0,7,0.00
2013-9-24,71.3,61.7,54.5,54.3,50.7,43.6,86,69,37,29.92,29.77,3,0,11,0.00
2013-9-25,62.2,53.9,47.2,49.7,42.6,30.0,94,69,31,29.83,29.76,4,1,8,0.00
2013-9-26,69.9,56.3,44.9,35.9,33.0,29.1,65,43,25,29.95,29.76,9,1,9,0.00
2013-9-27,70.7,56.7,43.3,42.6,36.3,32.9,72,49,29,30.06,29.95,2,0,8,0.00
2013-9-28,77.1,59.7,48.8,45.9,40.2,34.9,77,53,23,30.08,29.97,4,0,5,0.00
2013-9-29,72.4,62.1,54.1,54.5,47.2,39.1,80,59,46,30.04,29.97,4,1,9,0.01
2013-9-30,69.2,60.7,55.0,57.6,55.2,52.3,94,83,63,30.02,29.91,2,0,5,0.02
2013-10-1,73.4,61.5,53.5,54.0,51.6,46.8,90,73,41,29.94,29.86,6,0,6,0.00
2013-10-2,72.3,58.8,49.8,50.8,44.2,34.9,90,64,27,29.94,29.86,6,0,6,0.00
2013-10-3,72.9,56.7,40.5,40.3,30.8,13.9,83,46,11,30.02,29.90,9,1,10,0.00
2013-10-4,81.3,63.1,50.2,27.3,22.7,14.7,39,22,11,30.07,29.98,3,1,8,0.00
2013-10-5,77.2,62.3,48.8,35.9,26.1,14.5,47,27,14,30.17,30.07,6,0,6,0.00
2013-10-6,81.3,62.9,48.8,39.5,31.8,17.8,57,35,11,30.12,30.00,5,0,5,0.00
2013-10-7,79.0,61.6,50.2,38.3,29.8,23.7,45,32,14,30.00,29.84,7,0,7,0.00
2013-10-8,70.5,58.0,48.2,39.4,33.3,29.3,62,41,24,29.85,29.66,2,0,5,0.00
2013-10-9,68.3,56.3,46.8,40.5,37.1,33.4,68,50,32,29.69,29.51,7,0,7,0.00
2013-10-10,66.3,54.2,44.6,43.8,40.5,35.7,79,61,42,29.97,29.69,7,0,7,0.00
2013-10-11,68.0,54.1,44.3,45.0,41.3,39.6,86,65,36,30.04,29.95,6,0,6,0.00
2013-10-12,69.0,55.3,44.6,43.3,39.7,38.4,79,58,34,29.97,29.84,6,0,6,0.00
2013-10-13,67.3,55.0,42.9,45.9,42.2,38.3,93,66,36,30.02,29.85,8,1,8,0.00
2013-10-14,70.5,57.4,45.5,39.8,35.7,32.6,65,46,28,30.09,29.99,6,0,6,0.00
2013-10-15,76.7,59.2,46.7,38.7,31.5,21.1,63,38,19,30.02,29.92,4,0,7,0.00
2013-10-16,75.5,60.7,48.0,38.3,31.0,22.0,51,34,22,30.08,29.96,6,0,6,0.00
2013-10-17,73.7,57.8,46.8,38.0,34.8,31.9,62,45,22,30.05,29.95,2,0,6,0.00
2013-10-18,77.7,59.3,48.1,40.2,34.1,28.7,55,41,22,30.03,29.95,3,0,5,0.00
2013-10-19,79.3,62.7,49.8,42.1,35.8,30.1,58,40,18,30.06,29.98,5,0,5,0.00
2013-10-20,77.0,61.8,50.4,43.3,37.3,34.3,56,43,23,30.01,29.86,6,0,6,0.00
2013-10-21,77.7,61.9,50.1,42.7,39.5,35.9,63,47,26,29.95,29.88,1,0,6,0.00
2013-10-22,80.9,63.6,51.5,40.5,33.2,27.5,57,36,15,29.99,29.89,2,0,5,0.00
2013-10-23,80.1,62.9,51.7,33.4,27.9,23.4,41,29,13,29.91,29.82,3,0,8,0.00
2013-10-24,76.9,61.1,51.3,38.0,32.2,27.8,51,35,19,30.01,29.88,2,0,5,0.00
2013-10-25,76.6,60.1,48.3,40.8,34.3,28.5,53,40,17,30.12,30.01,2,0,6,0.00
2013-10-26,78.5,60.5,47.9,40.5,36.1,31.2,58,43,21,30.12,29.99,6,0,6,0.00
2013-10-27,72.1,57.5,46.9,42.5,35.2,28.8,81,45,27,29.99,29.53,7,1,10,0.00
2013-10-28,49.7,44.9,39.9,45.9,42.4,38.9,97,91,77,29.82,29.52,4,0,5,0.03
2013-10-29,50.9,46.6,39.5,45.5,43.4,37.9,95,89,76,30.02,29.81,1,0,5,0.02
2013-10-30,58.9,45.6,35.9,41.0,38.0,34.3,96,77,46,30.14,30.02,2,0,7,0.00
2013-10-31,65.8,48.9,38.9,44.0,39.9,35.9,91,74,41,30.17,30.08,1,0,5,0.00
2013-11-1,72.8,54.3,44.1,42.4,39.1,35.7,84,60,29,30.17,30.01,2,0,5,0.00
2013-11-2,69.0,55.5,43.9,43.5,38.8,33.1,75,55,33,30.02,29.85,7,0,7,0.00
2013-11-3,59.1,49.2,39.4,44.7,35.9,26.4,93,64,31,29.95,29.85,5,0,6,0.00
2013-11-4,64.6,49.8,37.0,31.5,26.1,18.2,76,44,20,30.05,29.84,3,1,10,0.00
2013-11-5,63.3,50.6,40.0,33.6,27.7,20.5,62,42,26,30.23,30.05,2,0,6,0.00
2013-11-6,66.0,52.4,42.7,41.6,35.2,32.0,69,54,32,30.26,30.19,1,0,5,0.00
2013-11-7,71.9,58.3,50.8,41.1,33.9,25.7,61,43,19,30.19,30.04,1,0,6,0.00
2013-11-8,69.3,55.0,46.3,38.0,32.3,25.1,62,44,26,30.06,29.94,1,0,5,0.00
2013-11-9,71.0,55.8,46.2,40.7,38.0,35.2,67,53,31,30.02,29.96,6,0,6,0.00
2013-11-10,73.0,57.5,46.4,39.6,34.6,28.3,66,45,20,30.08,30.01,6,0,6,0.00
2013-11-11,72.5,56.8,47.9,34.2,27.2,21.3,51,33,19,30.17,30.06,1,0,5,0.00
2013-11-12,70.8,59.1,51.6,40.1,34.4,29.0,58,40,26,30.24,30.12,1,0,5,0.00
2013-11-13,73.6,58.5,48.4,41.0,37.7,34.0,63,48,26,30.21,30.03,2,0,6,0.00
2013-11-14,68.2,55.4,46.2,42.4,37.8,33.2,78,53,34,30.05,29.78,3,0,7,0.00
2013-11-15,60.7,48.9,40.0,41.1,36.1,30.3,86,64,35,29.80,29.68,2,0,9,0.00
2013-11-16,58.9,48.8,40.3,37.3,34.3,32.2,77,59,39,29.90,29.72,5,0,5,0.00
2013-11-17,61.2,47.4,37.9,39.3,35.9,32.6,83,66,43,30.06,29.90,5,0,5,0.00
2013-11-18,59.3,47.9,40.8,43.0,39.4,35.4,84,73,47,30.13,30.05,1,0,6,0.00
2013-11-19,53.3,48.7,44.5,49.5,46.2,42.0,97,91,81,30.07,29.93,2,0,3,0.92
2013-11-20,51.1,49.7,47.7,50.6,49.1,47.2,98,98,97,29.92,29.82,1,0,4,0.82
2013-11-21,56.0,47.8,41.9,46.2,34.2,16.9,99,64,30,30.02,29.85,7,0,9,0.00
2013-11-22,64.0,52.5,44.6,19.8,13.1,6.0,33,21,11,30.06,29.95,2,0,12,0.00
2013-11-23,60.7,50.7,39.6,36.8,25.2,12.7,83,40,21,30.06,29.95,6,0,6,0.00
2013-11-24,57.7,43.9,35.3,40.7,35.9,30.4,90,75,47,30.25,30.08,6,0,6,0.00
2013-11-25,60.1,41.8,36.0,41.0,36.5,34.0,94,83,44,30.33,30.25,1,0,1,0.00
2013-11-26,60.7,47.9,39.6,43.3,39.6,36.6,89,75,45,30.29,30.09,0,0,1,0.00
2013-11-27,66.0,51.6,42.4,39.5,36.0,33.1,79,58,31,30.09,29.87,0,0,4,0.00
2013-11-28,63.5,50.8,43.5,39.4,36.6,34.4,77,60,35,30.07,29.88,0,0,3,0.00
2013-11-29,43.5,42.6,41.8,36.9,36.1,35.1,79,77,74,30.11,30.07,0,0,0,0.00
2013-11-30,62.3,49.7,41.3,40.7,38.1,36.2,82,66,40,30.26,30.17,0,0,6,0.00
2013-12-1,63.6,49.6,40.1,42.5,39.5,36.6,88,71,40,30.33,30.23,0,0,3,0.00
2013-12-2,60.7,50.2,41.9,43.8,40.4,36.2,85,71,47,30.25,29.89,1,0,4,0.00
2013-12-3,50.4,43.1,31.7,46.1,35.3,18.9,96,75,46,29.89,29.75,2,0,10,0.04
2013-12-4,42.8,33.5,26.9,22.3,18.7,15.9,77,56,36,30.06,29.86,1,0,7,0.00
2013-12-5,41.4,30.4,22.3,21.1,16.7,11.9,80,59,31,30.17,30.06,1,0,6,0.00
2013-12-6,40.3,31.2,25.3,30.3,23.1,15.8,96,73,49,30.20,29.91,5,0,6,0.00
2013-12-7,33.3,29.8,21.5,31.2,28.0,19.8,97,93,78,30.23,29.90,0,0,1,0.00
2013-12-8,37.9,26.0,18.6,29.6,22.6,16.5,94,87,64,30.32,30.23,0,0,1,0.02
2013-12-9,41.9,29.4,21.7,27.7,23.0,18.5,92,78,52,30.47,30.32,1,0,3,0.05
2013-12-10,49.2,34.8,26.5,29.4,25.1,19.8,90,70,35,30.47,30.23,1,0,5,0.67
2013-12-11,55.4,39.7,30.7,32.8,28.9,25.1,88,68,40,30.27,30.22,0,0,4,0.00
2013-12-12,60.6,43.8,34.7,31.0,26.0,17.9,73,52,20,30.28,30.17,6,0,6,0.00
2013-12-13,59.0,43.7,32.9,32.8,27.2,19.8,76,55,25,30.31,30.22,5,0,5,0.00
2013-12-14,60.7,44.3,33.7,36.9,30.0,23.7,81,60,30,30.41,30.31,4,0,4,0.00
2013-12-15,64.5,48.6,38.8,35.1,28.1,21.3,68,47,23,30.39,30.24,4,0,4,0.00
2013-12-16,71.2,52.7,42.4,40.5,34.8,30.0,70,53,27,30.27,30.14,2,0,3,0.00
2013-12-17,70.9,55.7,46.7,38.2,33.3,28.6,58,44,24,30.17,30.02,2,0,3,0.00
2013-12-18,62.4,52.4,44.9,39.2,34.0,28.8,75,50,32,30.03,29.66,1,0,4,0.00
2013-12-19,55.1,45.2,38.8,40.3,29.1,17.8,94,57,31,29.86,29.61,7,0,7,0.00
2013-12-20,57.5,44.0,33.6,26.5,19.3,8.9,61,39,15,29.98,29.86,8,0,8,0.00
2013-12-21,59.0,46.2,35.8,37.5,33.0,26.4,77,61,43,30.07,29.95,3,1,8,0.00
2013-12-22,61.8,48.0,37.6,39.0,34.7,30.1,75,61,42,30.29,30.07,2,0,7,0.00
2013-12-23,63.5,48.0,39.7,39.0,35.9,33.1,80,65,34,30.40,30.28,4,0,4,0.00
2013-12-24,67.3,51.1,42.2,41.8,37.4,28.9,78,62,33,30.32,30.19,5,0,5,0.00
2013-12-25,67.6,50.4,39.6,39.2,31.3,23.7,69,49,32,30.30,30.21,1,0,3,0.00
2013-12-26,69.6,49.6,40.9,35.5,29.2,21.9,64,47,21,30.26,30.18,3,0,3,0.00
2013-12-27,65.5,50.2,42.5,37.2,29.4,20.4,62,46,24,30.24,30.11,2,0,2,0.00
2013-12-28,68.8,51.5,38.4,28.9,23.2,16.1,63,37,15,30.12,30.01,7,0,7,0.00
2013-12-29,60.7,48.5,37.5,35.7,26.0,15.6,57,42,24,30.18,30.07,5,0,5,0.00
2013-12-30,63.7,49.2,40.6,31.0,25.7,19.8,55,41,22,30.26,30.20,1,0,4,0.00
2013-12-31,65.8,49.4,40.6,32.9,27.8,23.0,58,44,20,30.25,30.14,3,0,3,0.00
2014-1-1,63.9,49.0,40.0,35.7,31.0,25.0,73,51,29,30.19,30.11,4,0,4,0.00
2014-1-2,67.4,51.5,42.1,40.4,36.2,31.4,71,58,29,30.17,30.05,5,0,5,0.00